{"data":{"norad_id":62600,"epoch":"2026-05-25T05:04:54.419808Z","epoch_age_seconds":59949,"freshness":"FRESH","line1":"1 62600U 25008P   26145.21174097  .00013322  00000+0  49264-3 0  9996","line2":"2 62600  42.9989 206.1003 0001106 279.4511  80.6215 15.27588793 77265","mean_motion":15.27588793,"eccentricity":0.0001106,"inclination_deg":42.9989,"raan_deg":206.1003,"arg_perigee_deg":279.4511,"mean_anomaly_deg":80.6215,"bstar":0.00049264,"rev_number":7726,"period_min":94.266206101972,"perigee_km":482.26392249048,"apogee_km":483.78161103089,"semimajor_km":6861.1597667607,"source":"CELESTRAK","updated_at":"2026-05-25T13:38:19.735917Z"}}